Вернуться в каталог

COSMOS 2499 DEB

LostPO
NORAD 55736·DEBRIS·🇷🇺 Russia

Запущен May 23, 2014 с Plesetsk Cosmodrome

Loading…

Ближайшие Пролёты (ближайшие 24 часа)

TLE

УстаревшееSource: Space-Track

Эпоха: May 23, 2023, 02:28 UTC

1 55736U 14028AY  23143.10281863  .00006068  00000-0  18316-1 0  9993
2 55736  82.3627 285.9200 0251481 117.5628 245.1272 12.96414465 14485

Отслеживайте COSMOS 2499 DEB в реальном времени с AllMySat

Download on the App Store